Powrót do katalogu

MOBIUS-1

AktywnyNaukaSSO
NORAD 64556·PAYLOAD·🇨🇦 Canada
Ta nazwa satelity nie została jeszcze potwierdzona przez oficjalne źródła.

Wystrzelony Jun 23, 2025 z Vandenberg Space Force Base

Loading…

Następne Przeloty (najbliższe 24 godziny)

TLE

ŚwieżeSource: Space-Track

Epoka: Sep 14, 2026, 03:22 UTC

1 64556U 25135AE  26257.14050187  .00006920  00000-0  26326-3 0  9999
2 64556  97.4827  13.8428 0002936 100.9087 259.2482 15.27083323 68512

Śledź MOBIUS-1 w czasie rzeczywistym z AllMySat

Download on the App Store